Location: Bad Salzschlirf
(50.3750°N, 9.3000°E)
Time: 16:40:31
(UTC+01:00)

ISS - Pass Details

Date: 23 January 2020
Orbit: 415 x 421 km, 51.6° (Epoch: 18 January)

Event Time Altitude Azimuth Distance (km) Brightness Sun altitude
Rises 17:35:21 0° 192° (SSW) 2,353 0.6 -5.9°
Reaches altitude 10° 17:38:33 10° 159° (SSE) 1,493 -0.9 -6.4°
Maximum altitude 17:39:49 12° 136° (SE) 1,392 -1.3 -6.6°
Drops below altitude 10° 17:41:05 10° 114° (ESE) 1,496 -1.4 -6.7°
Enters shadow 17:42:24 - 96° (E) 1,780 -1.1 -6.9°
